TimeEDT,TemperatureF,Dew PointF,Humidity,Sea Level PressureIn,VisibilityMPH,Wind Direction,Wind SpeedMPH,Gust SpeedMPH,PrecipitationIn,Events,Conditions,WindDirDegrees,DateUTC
12:15 AM,37.4,32.0,81,29.79,10.0,Calm,Calm,-,N/A,,Clear,0,2013-03-21 04:15:00
12:35 AM,37.4,32.0,81,29.78,10.0,Calm,Calm,-,N/A,,Clear,0,2013-03-21 04:35:00
12:55 AM,35.6,32.0,87,29.78,10.0,SSW,3.5,-,N/A,,Clear,200,2013-03-21 04:55:00
1:15 AM,37.4,30.2,75,29.77,10.0,SSW,4.6,-,N/A,,Clear,200,2013-03-21 05:15:00
1:35 AM,37.4,30.2,75,29.77,10.0,Calm,Calm,-,N/A,,Clear,0,2013-03-21 05:35:00
1:55 AM,33.8,30.2,87,29.77,10.0,Calm,Calm,-,N/A,,Clear,0,2013-03-21 05:55:00
2:15 AM,35.6,30.2,81,29.76,10.0,Calm,Calm,-,N/A,,Clear,0,2013-03-21 06:15:00
2:35 AM,33.8,32.0,93,29.76,10.0,West,3.5,-,N/A,,Clear,270,2013-03-21 06:35:00
2:55 AM,35.6,32.0,87,29.76,10.0,WNW,5.8,-,N/A,,Clear,290,2013-03-21 06:55:00
3:15 AM,35.6,30.2,81,29.76,10.0,WNW,5.8,-,N/A,,Clear,290,2013-03-21 07:15:00
3:35 AM,37.4,30.2,75,29.76,10.0,WNW,8.1,-,N/A,,Clear,300,2013-03-21 07:35:00
3:55 AM,37.4,30.2,75,29.77,10.0,WNW,8.1,-,N/A,,Clear,300,2013-03-21 07:55:00
4:35 AM,37.4,30.2,75,29.78,10.0,WNW,6.9,-,N/A,,Clear,290,2013-03-21 08:35:00
4:55 AM,37.4,30.2,75,29.79,10.0,WNW,5.8,-,N/A,,Clear,290,2013-03-21 08:55:00
5:15 AM,37.4,28.4,70,29.79,10.0,WNW,6.9,-,N/A,,Clear,290,2013-03-21 09:15:00
5:35 AM,39.2,24.8,56,29.80,10.0,WNW,6.9,-,N/A,,Clear,290,2013-03-21 09:35:00
5:55 AM,39.2,23.0,52,29.80,10.0,WNW,6.9,-,N/A,,Clear,290,2013-03-21 09:55:00
6:15 AM,41.0,21.2,45,29.81,10.0,WNW,10.4,18.4,N/A,,Clear,290,2013-03-21 10:15:00
6:35 AM,39.2,19.4,45,29.82,10.0,West,10.4,-,N/A,,Clear,280,2013-03-21 10:35:00
6:55 AM,39.2,17.6,42,29.82,10.0,WNW,9.2,-,N/A,,Clear,290,2013-03-21 10:55:00
7:15 AM,39.2,15.8,39,29.82,10.0,WNW,9.2,-,N/A,,Clear,300,2013-03-21 11:15:00
7:35 AM,37.4,15.8,41,29.83,10.0,WNW,6.9,-,N/A,,Clear,290,2013-03-21 11:35:00
7:55 AM,37.4,17.6,45,29.83,10.0,WNW,8.1,-,N/A,,Clear,300,2013-03-21 11:55:00
8:15 AM,39.2,17.6,42,29.84,10.0,WNW,10.4,-,N/A,,Clear,290,2013-03-21 12:15:00
8:35 AM,41.0,17.6,39,29.84,10.0,WNW,8.1,-,N/A,,Clear,290,2013-03-21 12:35:00
8:55 AM,41.0,19.4,42,29.85,10.0,WNW,13.8,-,N/A,,Clear,300,2013-03-21 12:55:00
9:15 AM,42.8,19.4,39,29.85,10.0,WNW,10.4,17.3,N/A,,Clear,300,2013-03-21 13:15:00
9:35 AM,42.8,19.4,39,29.86,10.0,NW,16.1,19.6,N/A,,Clear,310,2013-03-21 13:35:00
9:55 AM,42.8,19.4,39,29.85,10.0,NW,17.3,21.9,N/A,,Clear,310,2013-03-21 13:55:00
10:15 AM,44.6,17.6,34,29.85,10.0,NW,15.0,18.4,N/A,,Clear,320,2013-03-21 14:15:00
10:35 AM,44.6,17.6,34,29.85,10.0,NW,10.4,17.3,N/A,,Clear,320,2013-03-21 14:35:00
10:55 AM,44.6,17.6,34,29.85,10.0,West,12.7,18.4,N/A,,Clear,280,2013-03-21 14:55:00
11:15 AM,46.4,17.6,32,29.85,10.0,WNW,15.0,20.7,N/A,,Clear,290,2013-03-21 15:15:00
11:35 AM,46.4,17.6,32,29.85,10.0,WNW,12.7,19.6,N/A,,Clear,300,2013-03-21 15:35:00
11:55 AM,46.4,15.8,29,29.84,10.0,WNW,12.7,19.6,N/A,,Clear,300,2013-03-21 15:55:00
12:15 PM,48.2,17.6,30,29.83,10.0,NW,11.5,19.6,N/A,,Clear,320,2013-03-21 16:15:00
12:35 PM,48.2,17.6,30,29.83,10.0,West,8.1,20.7,N/A,,Clear,270,2013-03-21 16:35:00
1:15 PM,50.0,14.0,24,29.82,10.0,WNW,15.0,19.6,N/A,,Clear,290,2013-03-21 17:15:00
1:55 PM,51.8,14.0,22,29.81,10.0,West,12.7,26.5,N/A,,Clear,280,2013-03-21 17:55:00
2:15 PM,51.8,14.0,22,29.81,10.0,WNW,17.3,26.5,N/A,,Clear,290,2013-03-21 18:15:00
2:35 PM,51.8,14.0,22,29.81,10.0,WNW,12.7,24.2,N/A,,Clear,290,2013-03-21 18:35:00
2:55 PM,51.8,12.2,21,29.80,10.0,WNW,13.8,25.3,N/A,,Clear,290,2013-03-21 18:55:00
3:15 PM,51.8,12.2,21,29.80,10.0,West,17.3,23.0,N/A,,Clear,270,2013-03-21 19:15:00
3:35 PM,53.6,12.2,19,29.79,10.0,NW,16.1,23.0,N/A,,Clear,310,2013-03-21 19:35:00
3:55 PM,51.8,12.2,21,29.80,10.0,WNW,13.8,21.9,N/A,,Clear,290,2013-03-21 19:55:00
4:15 PM,51.8,14.0,22,29.80,10.0,WNW,15.0,21.9,N/A,,Clear,300,2013-03-21 20:15:00
4:35 PM,53.6,14.0,21,29.80,10.0,NW,12.7,25.3,N/A,,Clear,310,2013-03-21 20:35:00
4:55 PM,53.6,14.0,21,29.80,10.0,WNW,16.1,21.9,N/A,,Clear,290,2013-03-21 20:55:00
5:15 PM,51.8,14.0,22,29.81,10.0,NW,8.1,18.4,N/A,,Clear,320,2013-03-21 21:15:00
5:35 PM,53.6,14.0,21,29.82,10.0,WNW,16.1,-,N/A,,Clear,290,2013-03-21 21:35:00
5:55 PM,51.8,14.0,22,29.82,10.0,WNW,12.7,19.6,N/A,,Clear,300,2013-03-21 21:55:00
6:15 PM,51.8,14.0,22,29.83,10.0,WNW,12.7,-,N/A,,Clear,300,2013-03-21 22:15:00
6:35 PM,50.0,14.0,24,29.84,10.0,NW,10.4,16.1,N/A,,Clear,310,2013-03-21 22:35:00
6:55 PM,50.0,14.0,24,29.84,10.0,NNW,13.8,-,N/A,,Clear,330,2013-03-21 22:55:00
7:15 PM,48.2,14.0,25,29.86,10.0,NW,9.2,17.3,N/A,,Clear,310,2013-03-21 23:15:00
7:35 PM,46.4,14.0,27,29.87,10.0,NNW,8.1,-,N/A,,Clear,330,2013-03-21 23:35:00
7:55 PM,44.6,17.6,34,29.88,10.0,NNW,5.8,-,N/A,,Clear,340,2013-03-21 23:55:00
8:15 PM,42.8,17.6,36,29.88,10.0,NNW,6.9,-,N/A,,Clear,340,2013-03-22 00:15:00
8:35 PM,44.6,15.8,31,29.89,10.0,NNW,9.2,-,N/A,,Clear,330,2013-03-22 00:35:00
8:55 PM,42.8,15.8,34,29.91,10.0,NNW,8.1,-,N/A,,Clear,340,2013-03-22 00:55:00
9:15 PM,41.0,17.6,39,29.92,10.0,NNW,8.1,-,N/A,,Clear,340,2013-03-22 01:15:00
9:55 PM,41.0,14.0,33,29.93,10.0,North,8.1,-,N/A,,Clear,350,2013-03-22 01:55:00
10:15 PM,41.0,14.0,33,29.94,10.0,NNW,6.9,-,N/A,,Clear,340,2013-03-22 02:15:00
10:55 PM,37.4,15.8,41,29.96,10.0,North,5.8,-,N/A,,Clear,350,2013-03-22 02:55:00
11:15 PM,37.4,15.8,41,29.97,10.0,NNW,5.8,-,N/A,,Clear,340,2013-03-22 03:15:00
11:35 PM,35.6,15.8,44,29.98,10.0,NNW,4.6,-,N/A,,Clear,340,2013-03-22 03:35:00
11:55 PM,33.8,17.6,52,29.98,10.0,North,6.9,-,N/A,,Clear,10,2013-03-22 03:55:00